Terug naar catalogus

FENGYUN 1C DEB

ActiefPO
NORAD 32461·DEBRIS·🇨🇳 China

Gelanceerd May 10, 1999 vanaf Taiyuan Satellite Launch Center

Loading…

Volgende Passages (komende 24 uur)

TLE

VersSource: Space-Track

Epoch: Sep 14, 2026, 06:57 UTC

1 32461U 99025DBZ 26257.28967731  .00000784  00000-0  72303-3 0  9993
2 32461  98.3229  82.0703 0232836  94.1541  80.0208 13.73498825710768

Volg FENGYUN 1C DEB in realtime met AllMySat

Download on the App Store